This demonstration page uses our WeatherBlox Daily Observations layout. Learn more.

Hourly Observations for January 10, 2016

Temp ( °F °C ) Dew Point ( °F °C ) Humidity (%) Winds ( mph kmh ) Pressure ( in mb ) Visibility ( mi km ) Precip ( " mm )
12:15 am 00:15 Clear -4 -20 -8 -22 84 84 N 7 11 30.53 1034 10 16.0934 0 0
12:35 am 00:35 Clear -4 -19.8 -7 -21.6 86 86 N 5 7 30.53 1034 10 16.0934 0 0
12:55 am 00:55 Clear -4 -19.8 -7 -21.7 85 85 Calm 30.53 1034 10 16.0934 0 0
1:15 am 01:15 Clear -4 -20.2 -8 -22.2 84 84 Calm 30.53 1034 10 16.0934 0 0
1:35 am 01:35 Clear -3 -19.7 -7 -21.6 85 85 Calm 30.53 1034 10 16.0934 0 0
1:55 am 01:55 Clear -5 -20.6 -9 -22.7 83 83 NNE 3 6 30.5 1033 10 16.0934 0 0
2:15 am 02:15 Clear -5 -20.5 -9 -22.5 84 84 NNE 3 6 30.5 1033 10 16.0934 0 0
2:35 am 02:35 Clear -9 -22.9 -14 -25.5 79 79 Calm 30.53 1034 10 16.0934 0 0
2:55 am 02:55 Clear -5 -20.6 -9 -22.5 85 85 W 3 6 30.5 1033 10 16.0934 0 0
3:15 am 03:15 Clear -6 -21.2 -10 -23.6 81 81 Calm 30.53 1034 10 16.0934 0 0
3:35 am 03:35 Clear -5 -20.8 -9 -23 83 83 WSW 3 6 30.5 1033 10 16.0934 0 0
3:55 am 03:55 Clear -4 -20 -8 -22.2 83 83 Calm 30.5 1033 10 16.0934 0 0
4:15 am 04:15 Clear -4 -19.8 -8 -22 83 83 W 3 6 30.5 1033 10 16.0934 0 0
4:35 am 04:35 Clear -8 -22 -12 -24.6 80 80 W 3 6 30.53 1034 10 16.0934 0 0
4:55 am 04:55 Clear -5 -20.5 -9 -22.8 82 82 Calm 30.5 1033 10 16.0934 0 0
5:15 am 05:15 Clear -5 -20.7 -10 -23.1 81 81 Calm 30.5 1033 10 16.0934 0 0
5:35 am 05:35 Clear -5 -20.5 -9 -22.8 82 82 Calm 30.5 1033 10 16.0934 0 0
5:55 am 05:55 Clear -4 -19.9 -8 -22.2 82 82 Calm 30.5 1033 10 16.0934 0 0
6:15 am 06:15 Clear -4 -19.8 -8 -22 83 83 Calm 30.5 1033 10 16.0934 0 0
6:35 am 06:35 Clear -3 -19.3 -7 -21.5 83 83 Calm 30.5 1033 10 16.0934 0 0
6:55 am 06:55 Clear -1 -18.5 -5 -20.6 84 84 Calm 30.45 1031 10 16.0934 0 0
7:15 am 07:15 Clear -1 -18.3 -5 -20.4 84 84 SW 3 6 30.45 1031 10 16.0934 0 0
7:35 am 07:35 Clear -1 -18.1 -4 -20.2 84 84 SW 3 6 30.45 1031 10 16.0934 0 0
7:55 am 07:55 Clear 0 -18 -4 -20.1 84 84 SW 6 9 30.45 1031 10 16.0934 0 0
8:15 am 08:15 Sunny 1 -17.1 -2 -19.1 85 85 SW 7 11 30.45 1031 10 16.0934 0 0
8:35 am 08:35 Sunny 3 -16.1 -1 -18.1 85 85 SW 6 9 30.42 1030 10 16.0934 0 0
8:55 am 08:55 Sunny 4 -15.4 1 -17.1 87 87 SW 8 13 30.42 1030 10 16.0934 0 0
9:15 am 09:15 Mostly Cloudy 7 -13.9 4 -15.6 87 87 SSW 7 11 30.39 1029 10 16.0934 0 0
9:35 am 09:35 Cloudy 8 -13.2 5 -14.9 87 87 SW 7 11 30.36 1028 10 16.0934 0 0
9:55 am 09:55 Cloudy 10 -12.4 7 -13.9 89 89 SW 7 11 30.36 1028 10 16.0934 0 0
10:15 am 10:15 Mostly Cloudy 11 -11.5 8 -13.1 88 88 SW 7 11 30.33 1027 10 16.0934 0 0
10:35 am 10:35 Sunny 12 -11.1 9 -12.6 89 89 SSW 9 15 30.33 1027 10 16.0934 0 0
10:55 am 10:55 Sunny 14 -10.1 11 -11.6 89 89 SSW 13 20 30.33 1027 10 16.0934 0 0
11:15 am 11:15 Sunny 14 -10 11 -11.7 88 88 WSW 10 17 30.33 1027 10 16.0934 0 0
11:35 am 11:35 Sunny 16 -9.1 12 -11.3 84 84 SW 12 19 30.33 1027 10 16.0934 0 0
11:55 am 11:55 Sunny 17 -8.3 12 -11.2 80 80 SW 9 15 30.3 1026 10 16.0934 0 0
12:15 pm 12:15 Sunny 18 -8 12 -11 79 79 SW 14 22 30.27 1025 10 16.0934 0 0
12:35 pm 12:35 Sunny 19 -7.1 14 -10.1 79 79 SW 12 19 30.27 1025 10 16.0934 0 0
12:55 pm 12:55 Sunny 21 -6 15 -9.2 78 78 SW 12 19 30.24 1024 10 16.0934 0 0
1:15 pm 13:15 Sunny 22 -5.3 16 -8.7 77 77 SW 9 15 30.21 1023 10 16.0934 0 0
1:35 pm 13:35 Sunny 24 -4.2 18 -8 75 75 SW 9 15 30.21 1023 10 16.0934 0 0
1:55 pm 13:55 Sunny 26 -3.3 19 -7.2 75 75 SW 10 17 30.15 1021 10 16.0934 0 0
2:15 pm 14:15 Sunny 27 -2.7 19 -7 73 73 SW 9 15 30.15 1021 10 16.0934 0 0
2:35 pm 14:35 Sunny 28 -2.2 20 -6.6 72 72 SW 10 17 30.15 1021 10 16.0934 0 0
2:55 pm 14:55 Sunny 29 -1.8 20 -6.5 71 71 SW 9 15 30.15 1021 10 16.0934 0 0
3:15 pm 15:15 Sunny 30 -1.3 21 -6 71 71 WSW 8 13 30.15 1021 10 16.0934 0 0
3:35 pm 15:35 Sunny 31 -0.8 21 -5.9 69 69 WSW 8 13 30.15 1021 10 16.0934 0 0
3:55 pm 15:55 Sunny 31 -0.7 21 -6 68 68 SW 7 11 30.15 1021 10 16.0934 0 0
4:15 pm 16:15 Sunny 31 -0.6 22 -5.7 69 69 SW 5 7 30.12 1020 10 16.0934 0 0
4:35 pm 16:35 Sunny 31 -0.8 22 -5.7 70 70 SW 3 6 30.12 1020 10 16.0934 0 0
4:55 pm 16:55 Sunny 30 -1.1 22 -5.8 71 71 SSW 5 7 30.12 1020 10 16.0934 0 0
5:15 pm 17:15 Sunny 30 -1.3 22 -5.5 73 73 SSW 6 9 30.12 1020 10 16.0934 0 0
5:35 pm 17:35 Clear 28 -2 22 -5.7 76 76 SW 7 11 30.12 1020 10 16.0934 0 0
5:55 pm 17:55 Partly Cloudy 27 -2.8 21 -6.3 77 77 SW 7 11 30.12 1020 10 16.0934 0 0
6:15 pm 18:15 Clear 27 -3 21 -6.3 78 78 SW 8 13 30.12 1020 10 16.0934 0 0
6:35 pm 18:35 Clear 26 -3.1 20 -6.5 78 78 SW 6 9 30.12 1020 10 16.0934 0 0
6:55 pm 18:55 Clear 25 -3.9 20 -6.9 80 80 SW 6 9 30.15 1021 10 16.0934 0 0
7:15 pm 19:15 Clear 25 -3.9 19 -7 79 79 SW 5 7 30.15 1021 10 16.0934 0 0
7:35 pm 19:35 Clear 26 -3.2 19 -7 75 75 SW 6 9 30.12 1020 10 16.0934 0 0
7:55 pm 19:55 Clear 26 -3.4 19 -7 76 76 W 6 9 30.12 1020 10 16.0934 0 0
8:15 pm 20:15 Clear 28 -2.3 19 -7.5 68 68 W 9 15 30.12 1020 10 16.0934 0 0
8:35 pm 20:35 Clear 28 -2.1 18 -8 64 64 W 9 15 30.12 1020 10 16.0934 0 0
8:55 pm 20:55 Clear 29 -1.5 17 -8.1 61 61 W 12 19 30.12 1020 10 16.0934 0 0
9:15 pm 21:15 Clear 29 -1.5 17 -8.5 59 59 W 12 19 30.12 1020 10 16.0934 0 0
9:35 pm 21:35 Clear 28 -2.2 17 -8.5 62 62 W 10 17 30.12 1020 10 16.0934 0 0
9:55 pm 21:55 Clear 27 -2.6 17 -8.5 64 64 W 12 19 30.12 1020 10 16.0934 0 0
10:15 pm 22:15 Clear 26 -3.4 17 -8.6 68 68 W 10 17 30.09 1019 10 16.0934 0 0
10:35 pm 22:35 Clear 26 -3.1 17 -8.5 67 67 W 9 15 30.09 1019 10 16.0934 0 0
10:55 pm 22:55 Clear 25 -3.7 16 -8.8 68 68 W 10 17 30.12 1020 10 16.0934 0 0
11:15 pm 23:15 Clear 24 -4.3 16 -9 70 70 W 12 19 30.12 1020 10 16.0934 0 0
11:35 pm 23:35 Clear 24 -4.5 16 -9 71 71 W 10 17 30.12 1020 10 16.0934 0 0
11:55 pm 23:55 Clear 25 -4 16 -8.8 70 70 W 12 19 30.12 1020 10 16.0934 0 0

Powered by AerisWeather